Location: Rowland
(34.5359°N, 79.2929°W)
Time: 17:36:39
(UTC+00:00)

S-56A Canister/Altair - Pass Details

Date: 05 October 2022
Orbit: 638 x 2494 km, 38.9° (Epoch: 06 December)

Event Time Altitude Azimuth Distance (km) Brightness Sun altitude
Exits shadow 10:22:44 11° 289° (WNW) 3,387 10.2 -11.6°
Maximum altitude 10:30:45 85° 204° (SSW) 1,024 8.1 -9.9°
Drops below altitude 10° 10:36:18 10° 115° (ESE) 2,380 11.2 -8.8°
Sets 10:38:23 0° 114° (ESE) 3,176 12.1 -8.3°
